Date,TemperatureHighF,TemperatureAvgF,TemperatureLowF,DewpointHighF,DewpointAvgF,DewpointLowF,HumidityHigh,HumidityAvg,HumidityLow,PressureMaxIn,PressureMinIn,WindSpeedMaxMPH,WindSpeedAvgMPH,GustSpeedMaxMPH,PrecipitationSumIn
2013-1-1,22.6,11.0,0.5,-5.6,-15.4,-27.9,39,29,22,28.56,28.38,10,3,13,0.00
2013-1-2,19.4,16.0,11.7,5.9,-0.4,-18.3,61,48,24,28.47,28.38,9,2,12,0.00
2013-1-3,26.6,18.5,13.8,9.7,1.9,-3.9,64,49,32,28.44,28.23,11,4,17,0.00
2013-1-4,35.6,24.2,15.3,7.3,0.1,-5.4,47,35,24,28.53,28.23,12,6,19,0.00
2013-1-5,34.0,17.4,1.6,6.6,-0.4,-13.6,57,46,30,28.58,28.20,10,1,15,0.00
2013-1-6,28.6,18.7,1.4,21.0,1.4,-17.9,73,47,34,28.58,28.20,10,3,15,0.00
2013-1-7,38.5,22.0,5.9,7.2,0.9,-13.8,61,41,26,28.56,28.17,12,5,17,0.00
2013-1-8,40.1,24.7,5.2,21.8,6.5,-6.8,67,48,23,28.47,28.20,14,3,17,0.00
2013-1-9,33.4,29.2,14.2,15.9,8.3,-0.2,55,41,31,28.79,28.14,17,6,28,0.00
2013-1-10,41.5,24.1,7.5,22.8,2.9,-5.7,66,43,18,28.82,28.41,10,3,15,0.00
2013-1-11,39.6,36.6,32.9,37.8,33.5,21.8,96,89,65,28.41,27.99,13,5,17,0.08
2013-1-12,43.3,34.5,20.7,42.8,21.4,-0.3,98,63,30,28.32,27.88,16,6,25,0.00
2013-1-13,20.7,16.7,10.6,0.1,-4.6,-9.5,41,38,34,28.41,28.29,9,4,15,0.00
2013-1-14,26.1,12.4,3.9,-6.3,-12.4,-21.3,39,32,21,28.67,28.41,9,4,14,0.00
2013-1-15,29.3,8.9,-3.5,-3.3,-17.4,-27.8,35,29,20,28.67,28.50,13,3,22,0.00
2013-1-16,27.0,19.9,9.1,12.9,1.4,-11.4,62,45,33,28.44,27.97,12,6,20,0.00
2013-1-17,12.0,0.9,-13.4,-8.9,-18.8,-31.8,38,38,38,28.64,28.44,12,3,22,0.00
2013-1-18,14.9,3.6,-12.6,1.6,-15.5,-31.1,55,40,38,28.67,28.14,6,1,8,0.00
2013-1-19,31.5,17.7,3.0,26.0,4.5,-10.1,80,56,42,28.20,27.88,16,3,27,0.00
2013-1-20,10.2,1.1,-13.5,-6.7,-14.9,-28.4,46,46,46,28.53,28.08,11,4,23,0.00
2013-1-21,0.7,-9.1,-14.6,-15.5,-24.3,-29.4,46,46,46,28.47,28.35,13,4,17,0.00
2013-1-22,2.3,-12.6,-27.9,-14.3,-27.6,-41.8,46,46,46,28.56,28.47,10,2,15,0.00
2013-1-23,14.0,-1.5,-16.2,-4.2,-22.6,-30.9,46,37,26,28.70,28.38,9,3,13,0.00
2013-1-24,16.7,3.7,-7.4,-15.2,-24.4,-33.3,26,25,23,28.97,28.70,8,2,10,0.00
2013-1-25,22.6,9.8,0.0,-2.3,-14.0,-23.8,45,34,24,28.70,28.29,8,3,12,0.00
2013-1-26,28.6,17.1,11.7,5.4,-0.9,-5.6,62,45,28,28.70,28.44,7,2,10,0.00
2013-1-27,30.7,23.3,16.0,23.9,3.9,-2.2,80,44,30,28.67,28.35,10,5,13,0.00
2013-1-28,38.1,31.8,28.8,27.8,22.6,13.3,83,70,39,28.38,28.26,10,1,15,0.00
2013-1-29,36.5,33.3,30.9,34.6,28.9,19.4,95,84,62,28.29,27.93,11,2,15,0.08
2013-1-30,31.1,19.8,10.2,22.4,6.9,-3.5,74,57,49,28.02,27.82,0,0,0,0.00
2013-1-31,12.6,8.0,4.6,-1.4,-5.6,-8.8,53,53,53,28.56,27.85,0,0,0,0.00
2013-2-1,10.2,1.8,-9.9,-3.7,-11.4,-22.4,53,53,53,30.09,28.50,0,0,0,0.00
2013-2-2,19.4,-3.0,-16.2,-1.2,-23.9,-40.8,53,38,22,31.01,28.79,0,0,0,0.00
2013-2-3,15.1,1.1,-13.0,-9.2,-25.8,-38.3,35,26,24,31.01,29.59,0,0,0,0.00
2013-2-4,20.3,-6.6,-26.0,-12.2,-33.2,-49.0,29,25,22,31.01,30.98,0,0,0,0.00
2013-2-5,25.3,6.3,-14.3,0.7,-17.6,-40.7,45,33,24,31.01,31.01,0,0,0,0.00
2013-2-6,24.3,5.2,-18.6,3.9,-13.4,-33.5,58,43,21,31.01,31.01,0,0,0,0.00
2013-2-7,21.9,18.7,15.8,9.0,6.0,-0.6,65,57,47,31.01,31.01,0,0,0,0.00
2013-2-8,31.5,13.9,-8.3,4.8,-7.2,-28.9,59,40,20,31.01,31.01,0,0,0,0.00
2013-2-9,25.7,8.3,-11.7,9.7,-10.0,-31.8,64,43,34,31.01,31.01,0,0,0,0.00
2013-2-10,33.8,25.9,19.8,30.9,18.9,9.7,89,74,62,31.01,27.82,0,0,0,0.00
2013-2-11,34.5,27.9,16.2,33.8,20.1,2.6,97,74,48,28.20,27.70,4,0,6,0.00
2013-2-12,26.2,19.0,8.1,8.7,2.9,-4.6,66,50,33,28.32,28.14,0,0,0,0.00
2013-2-13,41.9,21.8,5.2,13.6,4.2,-7.1,64,48,29,28.14,28.02,6,0,10,0.16
2013-2-14,30.6,22.6,14.2,19.3,8.2,-4.3,73,54,41,28.35,28.05,0,0,0,0.00
2013-2-15,24.6,9.3,-12.6,-2.5,-12.1,-33.4,49,38,22,28.53,28.35,0,0,0,0.00
2013-2-16,22.6,1.2,-14.4,-4.8,-24.6,-41.0,43,28,22,28.53,28.47,0,0,0,0.00
2013-2-17,26.1,2.5,-22.7,-8.6,-26.6,-48.1,31,24,21,28.53,28.32,10,2,14,0.00
2013-2-18,34.3,26.2,12.6,22.3,9.5,-17.5,79,51,24,28.32,27.88,12,4,16,0.00
2013-2-19,29.0,14.3,6.4,20.1,-4.3,-16.0,70,44,34,28.38,27.82,16,7,26,0.00
2013-2-20,20.1,9.8,6.1,-4.6,-12.8,-16.3,38,34,33,28.76,28.38,12,5,22,0.00
2013-2-21,22.8,17.2,10.0,15.8,3.2,-12.2,77,55,35,28.85,28.67,8,2,17,0.00
2013-2-22,25.5,20.4,16.0,13.2,9.6,5.6,72,63,48,28.67,28.20,7,2,11,0.00
2013-2-23,35.8,23.8,6.8,14.0,9.3,-3.1,66,55,32,28.26,28.14,7,1,10,0.04
2013-2-24,32.2,26.2,22.5,13.5,10.0,4.5,66,51,32,28.50,28.26,5,1,8,0.00
2013-2-25,34.0,25.9,9.3,15.7,8.3,-1.4,67,49,32,28.53,28.50,6,1,8,0.00
2013-2-26,33.8,27.8,20.7,19.5,10.9,5.6,69,50,32,28.53,28.32,9,2,16,0.00
2013-2-27,32.5,28.9,27.0,24.0,16.6,11.2,77,60,44,28.32,28.20,9,4,16,0.00
2013-2-28,30.9,24.0,19.4,22.4,9.4,1.9,75,54,33,28.61,28.29,11,4,22,0.00
2013-3-1,30.7,18.9,11.3,3.8,-1.6,-9.1,53,41,23,28.70,28.58,7,3,14,0.00
2013-3-2,32.0,14.3,-8.9,0.0,-8.7,-29.7,52,36,20,28.67,28.56,9,2,14,0.00
2013-3-3,35.2,8.1,-11.9,1.2,-17.8,-32.5,46,30,19,28.56,28.47,7,1,10,0.00
2013-3-4,34.5,8.9,-12.1,2.6,-17.2,-32.1,45,30,20,28.58,28.53,8,1,12,0.00
2013-3-5,29.1,17.0,0.0,12.4,-3.8,-26.2,61,40,27,28.56,28.50,8,2,13,0.00
2013-3-6,33.3,24.6,11.7,19.3,9.3,-6.4,75,54,31,28.70,28.56,7,2,10,0.00
2013-3-7,36.9,19.0,3.0,5.1,-2.1,-14.5,58,41,21,28.82,28.67,6,1,9,0.00
2013-3-8,40.3,21.7,-0.9,7.1,-2.9,-18.1,61,35,21,28.85,28.67,12,4,15,0.00
2013-3-9,34.2,29.0,20.7,29.8,18.3,6.6,84,65,42,28.67,28.23,13,5,20,0.04
2013-3-10,36.1,32.8,28.6,32.8,25.3,14.4,90,75,52,28.38,28.20,8,1,10,0.20
2013-3-11,31.6,27.9,21.2,25.8,17.5,9.2,82,66,42,28.32,27.99,0,0,0,0.00
2013-3-12,23.4,18.6,14.2,9.8,1.7,-4.7,61,48,33,28.32,28.02,0,0,0,0.00
2013-3-13,34.7,18.8,2.5,4.1,-4.3,-18.5,57,37,19,28.61,28.32,0,0,0,0.00
2013-3-14,44.4,18.3,-9.6,14.4,-9.5,-29.3,50,30,17,28.61,28.32,10,2,15,0.04
2013-3-15,32.2,23.6,11.8,20.5,0.9,-13.9,64,38,21,28.41,28.29,8,3,14,0.00
2013-3-16,28.2,16.5,3.9,1.4,-9.1,-18.3,56,32,20,28.47,28.35,11,3,15,0.00
2013-3-17,29.3,7.5,-15.0,-5.0,-14.9,-29.8,46,37,20,28.67,28.47,10,3,13,0.00
2013-3-18,36.3,21.7,4.1,19.1,3.8,-17.0,74,49,22,28.53,27.88,13,4,18,0.00
2013-3-19,29.7,21.7,16.3,18.1,4.4,-3.2,73,48,28,28.20,27.85,16,6,28,0.00
2013-3-20,24.3,16.4,10.6,2.2,-4.0,-8.1,54,41,26,28.35,28.20,10,5,16,0.00
2013-3-21,25.3,18.5,3.0,3.5,-1.0,-11.9,53,43,29,28.41,28.32,11,3,15,0.00
2013-3-22,39.0,20.5,0.1,12.0,0.8,-14.5,60,43,24,28.50,28.38,8,2,11,0.00
2013-3-23,32.9,26.0,21.4,9.0,6.1,3.0,54,43,31,28.56,28.47,8,1,10,0.00
2013-3-24,31.6,25.0,18.1,9.5,5.8,2.1,64,44,31,28.53,28.35,9,2,13,0.00
2013-3-25,38.1,27.5,19.8,15.6,9.6,4.3,69,49,26,28.53,28.35,8,3,13,0.00
2013-3-26,39.7,30.4,23.0,21.1,11.7,1.4,73,48,26,28.61,28.53,6,2,10,0.04
2013-3-27,50.7,32.0,19.0,11.5,4.8,-6.8,61,35,17,28.67,28.61,10,3,15,0.00
2013-3-28,55.4,31.8,11.5,11.6,1.4,-6.3,53,29,16,28.70,28.64,7,2,10,0.00
2013-3-29,57.0,31.0,8.2,12.6,2.5,-7.0,52,33,16,28.70,28.58,8,2,13,0.00
2013-3-30,36.3,28.7,16.9,33.8,17.6,-1.0,91,65,31,28.58,28.17,12,2,19,0.24
2013-3-31,42.1,31.6,20.1,33.8,17.1,0.3,93,60,20,28.26,27.99,14,5,28,0.00
2013-4-1,32.4,18.5,5.2,6.5,-5.6,-20.2,55,36,20,28.47,28.23,12,4,17,0.00
2013-4-2,38.3,17.0,-2.6,-0.6,-13.7,-27.1,45,25,18,28.64,28.47,12,3,17,0.00
2013-4-3,46.2,16.4,4.6,3.4,-16.0,-24.3,24,22,17,28.79,28.53,12,3,17,0.00
2013-4-4,49.5,35.2,23.4,12.6,4.2,-7.3,47,28,19,28.53,28.32,12,4,17,0.00
2013-4-5,45.9,28.5,14.2,6.5,0.3,-4.9,51,31,17,28.64,28.47,8,2,12,0.00
2013-4-6,34.9,29.7,22.6,29.5,15.9,-0.4,83,58,35,28.58,27.97,13,4,20,0.20
2013-4-7,35.8,32.6,25.5,30.5,20.2,12.2,87,62,40,28.41,27.97,7,1,12,0.12
2013-4-8,36.7,32.5,25.5,28.8,23.6,15.6,81,70,45,28.44,28.29,6,1,8,0.24
2013-4-9,40.1,33.2,25.0,33.9,20.3,5.2,86,61,32,28.61,28.44,10,2,13,0.00
2013-4-10,43.9,31.6,24.8,12.6,5.7,-4.5,58,36,18,28.61,28.53,9,3,16,0.00
2013-4-11,33.4,28.7,25.3,15.0,5.8,1.3,63,38,27,28.58,28.26,12,5,17,0.00
2013-4-12,33.1,27.6,18.0,20.4,13.0,3.9,78,56,34,28.26,28.08,10,3,13,0.00
2013-4-13,43.9,27.3,12.6,16.8,7.2,-0.6,65,44,23,28.35,28.11,8,2,15,0.16
2013-4-14,47.8,30.2,11.7,26.6,11.0,0.4,79,49,19,28.44,28.29,9,3,15,0.00
2013-4-15,56.7,39.3,31.8,33.3,18.4,1.1,90,51,17,28.29,28.02,15,4,25,0.28
2013-4-16,47.7,37.2,30.2,13.8,9.5,2.8,43,32,19,28.76,28.26,11,4,15,0.00
2013-4-17,44.8,34.8,26.8,19.2,13.9,9.2,65,43,28,28.82,28.50,8,3,10,0.00
2013-4-18,38.8,34.4,32.2,32.0,26.8,11.8,93,75,39,28.50,27.82,8,1,12,0.43
2013-4-19,33.4,28.7,18.1,31.6,16.8,0.7,93,64,36,28.17,27.55,8,1,17,0.12
2013-4-20,38.7,24.3,13.1,5.3,0.8,-7.8,57,39,19,28.79,28.17,6,0,8,0.00
2013-4-21,43.9,26.9,8.2,11.2,1.8,-7.0,63,36,20,28.88,28.64,17,5,23,0.00
2013-4-22,42.6,36.3,32.7,34.3,27.9,8.0,88,73,32,28.64,28.56,15,3,20,0.00
2013-4-23,39.4,32.7,22.8,30.8,21.3,9.4,92,66,39,28.56,28.32,10,2,15,0.00
2013-4-24,50.2,33.2,12.6,17.2,6.3,0.1,71,37,17,28.41,28.29,8,2,13,0.00
2013-4-25,53.2,37.5,25.5,26.6,12.5,0.4,78,41,17,28.61,28.29,10,2,16,0.00
2013-4-26,61.0,37.5,21.4,27.8,15.2,8.3,73,44,16,28.64,28.50,14,3,20,0.00
2013-4-27,70.5,48.7,27.0,33.2,19.7,10.6,74,39,14,28.58,28.44,10,2,15,0.00
2013-4-28,68.7,51.7,34.7,44.1,22.8,8.8,86,42,15,28.44,28.23,12,4,21,0.00
2013-4-29,73.2,53.8,40.1,47.2,32.7,17.0,83,51,16,28.26,28.20,9,2,13,0.00
2013-4-30,70.9,56.3,46.3,49.0,40.0,32.1,86,60,25,28.29,28.08,16,5,25,0.00
2013-5-1,59.0,48.7,33.4,47.2,29.3,12.8,89,53,19,28.82,28.29,8,3,13,0.51
2013-5-2,34.9,32.5,29.8,26.7,21.6,16.0,77,64,47,28.82,28.76,9,4,16,0.00
2013-5-3,35.4,31.8,28.8,29.7,24.2,19.9,86,74,55,28.76,28.61,8,2,13,0.28
2013-5-4,66.0,44.7,33.4,34.3,25.7,14.6,89,56,17,28.64,28.56,6,2,8,0.04
2013-5-5,71.6,50.0,33.6,31.8,22.3,12.1,81,43,14,28.61,28.53,6,2,9,0.00
2013-5-6,78.6,52.7,28.4,37.0,20.2,13.5,84,36,12,28.58,28.47,9,1,12,0.00
2013-5-7,81.5,57.4,33.6,41.2,21.2,8.8,76,32,11,28.56,28.47,10,2,14,0.00
2013-5-8,83.1,59.0,35.4,29.7,18.9,10.5,51,25,11,28.50,28.44,7,2,10,0.00
2013-5-9,52.0,42.5,34.2,29.0,23.3,16.6,79,50,26,28.58,28.44,10,3,13,0.08
2013-5-10,53.4,38.8,28.2,27.6,11.4,-0.1,76,36,17,28.58,28.38,9,4,15,0.00
2013-5-11,44.2,35.5,28.8,27.5,16.3,6.1,78,48,22,28.38,28.23,11,4,17,0.08
2013-5-12,43.2,32.1,23.5,25.4,10.1,-5.7,77,43,20,28.53,28.32,12,5,20,0.00
2013-5-13,60.4,40.0,17.6,14.8,7.4,1.2,55,29,16,28.56,28.35,8,3,13,0.00
2013-5-14,67.5,50.6,35.1,27.0,17.4,10.8,63,30,15,28.35,27.97,12,5,17,0.00
2013-5-15,74.3,58.5,36.7,43.1,20.7,10.5,83,27,13,28.23,27.93,14,5,23,0.00
2013-5-16,69.1,48.9,32.9,30.4,18.1,10.6,71,33,14,28.56,28.23,8,2,13,0.00
2013-5-17,71.8,51.5,31.1,28.5,20.9,13.7,72,36,14,28.64,28.53,8,2,13,0.00
2013-5-18,60.8,52.4,39.6,30.5,24.7,17.7,52,35,25,28.61,28.44,10,3,13,0.00
2013-5-19,82.6,63.8,47.3,46.5,34.5,24.6,71,37,16,28.44,28.29,10,2,15,0.00
2013-5-20,77.4,62.0,55.2,52.3,44.4,34.1,82,55,22,28.32,28.14,12,3,16,0.08
2013-5-21,68.0,57.5,51.4,56.4,50.6,38.3,94,80,35,28.20,28.11,7,2,10,0.71
2013-5-22,53.1,46.2,39.7,48.7,40.6,31.1,89,81,58,28.41,28.17,8,2,15,0.71
2013-5-23,49.8,39.2,30.0,31.3,16.9,6.0,73,44,19,28.76,28.41,9,4,18,0.00
2013-5-24,64.2,43.3,24.8,26.4,13.3,5.3,73,35,15,28.85,28.76,8,2,13,0.00
2013-5-25,70.0,47.7,28.2,30.0,15.3,5.6,74,33,14,28.85,28.76,9,2,13,0.00
2013-5-26,70.9,49.8,28.9,32.1,15.8,6.7,76,31,14,28.82,28.67,9,2,12,0.00
2013-5-27,70.0,51.6,30.7,32.5,16.6,8.8,72,29,14,28.70,28.44,11,2,17,0.00
2013-5-28,60.4,54.9,48.0,43.0,32.7,17.2,69,44,29,28.44,28.23,6,2,8,0.00
2013-5-29,79.2,62.5,51.4,50.8,39.9,24.5,80,50,15,28.35,28.23,8,2,12,0.00
2013-5-30,86.4,68.4,57.9,62.2,50.8,34.9,92,63,18,28.35,28.20,13,3,32,0.67
2013-5-31,81.1,67.6,57.9,60.0,46.0,29.2,89,54,17,28.26,28.14,13,5,17,0.16
2013-6-1,77.7,57.6,41.9,57.7,42.3,23.6,87,63,15,28.23,28.08,9,2,13,0.43
2013-6-2,59.4,44.0,34.2,36.3,24.7,8.8,83,54,17,28.47,28.23,9,4,17,0.16
2013-6-3,65.3,46.2,27.7,31.4,14.2,2.8,74,32,15,28.58,28.47,10,2,15,0.00
2013-6-4,66.0,48.8,27.1,35.6,14.7,8.8,71,29,15,28.67,28.58,8,1,11,0.00
2013-6-5,52.2,48.5,44.6,42.7,32.2,15.9,73,54,28,28.64,28.56,5,1,9,0.08
2013-6-6,57.2,51.0,46.2,41.3,29.9,19.3,79,49,24,28.56,28.50,6,1,9,0.12
2013-6-7,76.5,57.3,40.1,35.2,22.6,10.5,66,32,13,28.50,28.41,8,1,11,0.00
2013-6-8,74.8,57.0,41.4,35.9,23.3,15.0,63,32,13,28.50,28.41,7,1,9,0.00
2013-6-9,75.2,56.9,37.6,41.7,27.4,22.0,73,36,15,28.56,28.44,9,2,13,0.00
2013-6-10,79.9,65.7,55.4,57.9,38.7,29.8,76,40,19,28.44,28.26,8,1,13,0.08
2013-6-11,79.7,63.8,55.6,57.8,48.3,33.0,89,65,21,28.35,28.29,6,1,8,0.36
2013-6-12,85.1,62.4,41.2,50.9,29.3,18.3,82,37,11,28.38,28.29,8,1,10,0.00
2013-6-13,66.6,55.2,43.2,41.0,31.1,23.2,68,42,24,28.58,28.32,8,2,15,0.00
2013-6-14,78.3,56.8,36.1,41.6,23.3,10.6,79,36,12,28.64,28.50,8,1,12,0.00
2013-6-15,70.5,59.3,46.8,58.2,38.8,17.1,85,49,27,28.50,28.29,7,1,9,0.08
2013-6-16,81.1,64.7,52.3,57.9,38.0,19.5,88,48,12,28.35,28.26,9,2,15,0.00
2013-6-17,66.4,53.2,35.6,43.5,30.9,17.6,73,46,20,28.53,28.29,6,2,8,0.00
2013-6-18,73.8,51.4,33.1,34.9,22.4,10.5,82,42,13,28.61,28.53,6,2,10,0.00
2013-6-19,80.2,58.4,34.0,38.5,21.6,16.5,73,30,12,28.61,28.47,9,2,15,0.00
2013-6-20,75.6,62.4,48.9,57.2,41.0,27.1,83,48,22,28.61,28.53,6,0,8,0.79
2013-6-21,63.9,61.1,57.2,59.3,57.1,53.2,91,87,82,28.61,28.38,6,1,11,0.35
2013-6-22,71.6,62.8,57.6,59.8,51.3,40.6,89,69,34,28.56,28.44,8,1,13,0.00
2013-6-23,84.4,67.9,60.4,60.9,53.2,40.0,84,64,23,28.47,28.26,15,2,22,0.28
2013-6-24,87.3,71.9,56.5,63.3,45.2,28.6,87,48,13,28.41,28.29,8,2,13,0.00
2013-6-25,92.3,73.4,59.0,44.5,36.4,27.3,57,31,12,28.32,28.29,5,1,8,0.00
2013-6-26,88.2,69.4,55.6,63.8,47.4,38.0,89,53,18,28.29,28.20,10,2,15,1.26
2013-6-27,86.4,68.7,60.1,64.1,52.5,29.1,91,64,16,28.26,28.14,8,1,13,0.08
2013-6-28,69.3,62.8,59.4,58.9,53.6,44.4,89,74,41,28.23,28.11,7,0,12,0.20
2013-6-29,71.2,59.8,47.1,53.1,39.8,16.4,84,55,17,28.41,28.20,7,1,12,0.00
2013-6-30,79.5,63.5,40.8,43.6,25.9,20.4,75,32,12,28.56,28.41,7,1,10,0.00
2013-7-1,76.5,59.6,40.6,47.0,28.1,12.0,72,36,13,28.67,28.56,8,2,11,0.00
2013-7-2,80.1,57.7,36.3,43.2,24.2,13.5,76,36,12,28.67,28.58,7,1,10,0.00
2013-7-3,82.8,61.1,39.7,41.5,25.8,18.0,73,33,11,28.58,28.47,9,1,12,0.00
2013-7-4,84.0,68.9,52.3,52.5,34.4,23.8,76,33,13,28.50,28.44,11,2,15,0.00
2013-7-5,86.9,72.1,54.1,56.0,37.0,24.3,83,35,13,28.47,28.38,12,3,16,0.00
2013-7-6,91.8,74.9,60.1,51.5,38.5,26.3,70,31,12,28.44,28.38,10,3,15,0.00
2013-7-7,86.9,71.5,60.6,61.7,50.5,39.1,81,51,20,28.44,28.38,6,1,8,0.24
2013-7-8,85.5,68.9,60.4,63.8,52.0,40.7,89,60,22,28.50,28.41,6,2,8,0.75
2013-7-9,72.1,65.7,59.2,63.2,57.4,49.0,91,76,44,28.50,28.20,9,1,13,0.04
2013-7-10,72.7,63.8,52.2,63.0,39.0,25.5,89,44,19,28.44,28.20,10,4,17,0.00
2013-7-11,83.5,67.3,50.4,43.4,31.4,20.9,70,32,12,31.01,28.44,8,1,10,0.00
2013-7-12,83.7,66.0,48.7,52.3,37.5,30.9,82,40,17,31.01,31.01,12,3,20,0.00
2013-7-13,88.7,71.3,57.9,43.9,36.7,27.7,55,31,13,31.01,31.01,11,4,15,0.00
2013-7-14,90.0,72.6,55.0,52.8,39.7,27.3,79,37,12,31.01,31.01,9,3,13,0.00
2013-7-15,92.5,74.2,58.8,62.3,42.5,29.6,81,40,11,31.01,31.01,6,2,9,0.00
2013-7-16,93.6,77.6,62.8,61.7,47.6,38.9,78,40,17,31.01,31.01,7,2,8,0.00
2013-7-17,94.3,77.6,66.7,64.2,49.1,33.8,82,44,14,31.01,28.58,7,2,15,0.00
2013-7-18,90.7,74.1,60.8,70.2,56.6,39.3,89,61,18,28.58,28.26,11,2,18,0.00
2013-7-19,80.8,71.3,55.6,63.7,35.5,29.3,89,29,18,28.26,28.11,8,3,17,0.00
2013-7-20,72.7,59.7,43.7,49.9,32.8,22.3,74,41,16,28.50,28.26,8,2,12,0.00
2013-7-21,71.2,54.4,37.4,43.6,31.4,26.6,78,47,21,28.53,28.41,9,2,12,0.00
2013-7-22,82.0,63.1,45.3,62.1,41.6,34.1,82,50,21,28.41,28.08,13,4,17,0.00
2013-7-23,68.7,57.0,47.7,48.9,33.0,19.9,84,45,17,28.47,28.20,8,2,14,0.00
2013-7-24,78.1,58.8,38.5,49.5,31.1,18.8,81,43,13,28.53,28.47,7,1,12,0.00
2013-7-25,77.0,59.6,45.3,57.1,40.8,30.6,91,56,21,28.47,28.38,10,2,13,0.00
2013-7-26,63.0,57.4,47.3,59.6,52.3,39.8,92,83,66,28.41,28.32,6,2,10,0.00
2013-7-27,63.5,50.5,46.4,46.4,37.1,23.8,82,63,24,28.38,28.29,6,2,8,0.00
2013-7-28,54.9,49.6,42.6,48.0,41.4,33.5,90,74,48,28.41,28.23,7,2,15,0.00
2013-7-29,78.4,60.1,45.3,46.9,34.4,19.9,85,47,15,28.61,28.41,4,1,8,0.00
2013-7-30,74.7,59.8,45.9,53.6,41.2,27.4,79,55,20,28.64,28.56,8,3,12,0.00
2013-7-31,79.3,64.6,52.2,59.5,45.8,31.5,85,55,20,28.56,28.38,8,1,12,0.00
2013-8-1,75.2,60.2,47.8,50.6,35.9,24.3,84,47,18,28.38,28.35,9,2,15,0.00
2013-8-2,77.2,61.2,50.0,54.0,36.2,22.1,86,46,15,28.41,28.26,8,1,17,0.04
2013-8-3,73.4,58.3,47.3,48.3,33.4,27.0,81,43,21,28.61,28.41,8,2,12,0.00
2013-8-4,75.2,56.1,41.9,51.0,30.3,20.2,84,45,13,28.70,28.53,4,1,6,0.00
2013-8-5,63.5,53.9,40.6,57.4,44.3,28.1,88,71,38,28.56,28.32,8,2,12,0.12
2013-8-6,77.9,65.0,59.2,58.9,51.0,32.4,91,66,21,28.32,28.23,8,2,12,0.00
2013-8-7,71.6,60.7,45.1,55.9,41.4,19.5,86,55,17,28.47,28.20,7,1,13,0.04
2013-8-8,72.5,56.1,39.4,51.4,34.0,24.9,84,49,19,28.50,28.44,6,0,10,0.00
2013-8-9,70.9,58.3,46.2,54.2,36.1,20.0,85,50,17,28.53,28.38,9,2,15,0.00
2013-8-10,75.9,57.2,39.6,52.5,30.1,20.9,80,43,15,28.61,28.53,5,1,9,0.00
2013-8-11,79.7,57.8,42.1,52.5,37.7,24.3,79,52,14,28.56,28.47,6,0,8,0.04
2013-8-12,75.4,57.0,40.1,59.6,38.5,24.1,87,55,18,28.50,28.38,8,2,15,0.04
2013-8-13,63.5,51.1,39.2,47.7,31.9,21.0,86,53,23,28.61,28.50,7,1,12,0.00
2013-8-14,70.3,50.6,34.5,46.5,26.5,19.3,83,44,17,28.64,28.56,5,1,6,0.00
2013-8-15,80.2,56.8,36.1,44.3,27.3,21.2,79,39,12,28.58,28.53,6,0,6,0.00
2013-8-16,88.3,61.1,41.4,55.8,34.1,25.3,83,44,13,28.64,28.58,0,0,0,0.00
2013-8-17,85.3,64.0,45.1,56.7,35.0,23.6,82,43,13,28.67,28.58,7,2,11,0.00
2013-8-18,81.9,63.5,47.5,50.9,35.6,25.8,80,41,14,28.64,28.50,8,3,12,0.00
2013-8-19,82.4,65.1,47.7,54.7,41.6,36.3,86,48,21,28.53,28.38,5,1,6,0.00
2013-8-20,87.6,71.3,55.2,62.6,45.1,36.1,86,46,18,28.47,28.41,9,2,13,0.00
2013-8-21,90.7,72.2,60.8,64.1,54.0,41.1,89,58,19,28.47,28.32,10,3,13,0.00
2013-8-22,84.9,65.0,46.4,59.8,35.9,21.9,83,44,11,28.64,28.47,6,1,10,0.00
2013-8-23,82.4,60.3,40.8,52.1,30.7,22.4,82,40,14,28.70,28.58,5,1,9,0.00
2013-8-24,82.9,65.4,49.3,53.3,36.2,29.7,85,40,16,28.70,28.56,12,2,14,0.00
2013-8-25,93.6,77.4,63.7,60.0,50.0,38.3,81,44,17,28.56,28.41,9,4,20,0.08
2013-8-26,77.5,75.9,74.5,57.3,53.8,50.0,52,46,42,28.44,28.41,37,7,37,0.00
2013-8-28,91.4,72.9,56.7,63.7,47.7,30.2,84,50,12,28.56,28.41,0,0,3,0.00
2013-8-29,90.5,70.6,55.8,64.4,49.5,34.2,82,55,15,28.56,28.38,5,0,6,0.04
2013-8-30,69.1,65.8,60.4,64.2,54.0,42.9,87,67,39,28.44,28.26,7,3,12,0.31
2013-8-31,83.3,66.8,56.7,58.4,47.7,34.8,91,58,20,28.41,28.26,7,2,9,0.00
2013-9-1,78.1,64.5,52.2,62.8,50.5,35.2,87,64,23,28.32,28.17,8,3,18,0.08
2013-9-2,62.4,52.7,46.4,41.6,34.5,26.4,74,52,27,28.47,28.32,9,3,15,0.00
2013-9-3,76.8,58.0,40.8,54.2,34.0,21.5,91,49,15,28.50,28.38,7,1,10,0.00
2013-9-4,72.0,58.0,40.6,44.2,30.0,15.2,66,38,14,28.64,28.38,8,2,15,0.00
2013-9-5,73.9,48.3,34.7,34.7,25.2,18.8,66,47,13,28.76,28.64,7,1,9,0.00
2013-9-6,83.7,62.6,47.8,62.5,47.4,32.1,88,62,24,28.64,28.38,9,2,14,0.00
2013-9-7,84.2,64.5,45.3,63.0,50.6,36.5,84,64,26,28.58,28.35,7,1,9,0.00
2013-9-8,71.1,54.6,39.0,51.9,35.6,26.9,84,55,22,28.64,28.50,8,1,9,0.00
2013-9-9,67.1,60.6,50.2,62.9,53.2,41.1,89,77,67,28.50,28.20,6,1,6,0.00
2013-9-10,81.7,67.9,58.6,68.3,54.7,39.1,91,67,22,28.38,28.20,5,0,5,0.00
2013-9-11,82.8,65.0,50.9,62.9,44.9,31.8,88,55,19,28.44,28.38,2,0,3,0.00
2013-9-12,60.1,51.9,45.9,50.8,38.0,27.3,84,61,30,28.61,28.41,4,1,6,0.04
2013-9-13,64.9,46.6,32.5,34.4,22.2,16.1,65,42,18,28.70,28.58,3,2,4,0.00
2013-9-14,71.1,50.2,30.9,42.0,24.6,17.6,80,41,17,28.58,28.41,8,2,13,0.00
2013-9-15,56.7,48.6,31.3,47.6,36.6,20.9,81,64,38,28.73,28.41,6,2,9,0.04
2013-9-16,65.1,44.2,28.6,43.0,22.6,15.1,82,49,15,28.88,28.73,5,0,7,0.00
2013-9-17,68.2,47.9,27.0,41.6,24.7,17.5,84,46,17,28.79,28.56,10,3,14,0.00
2013-9-18,62.4,57.8,53.4,59.8,52.1,40.8,91,82,61,28.56,28.35,8,4,11,0.04
2013-9-19,72.9,67.0,62.4,66.1,62.0,52.0,93,85,51,28.38,28.17,8,4,10,0.51
2013-9-20,72.0,62.1,48.7,66.1,48.0,28.4,92,65,21,28.23,28.11,6,6,11,0.00
2013-9-21,52.0,45.4,36.1,39.1,25.4,15.0,74,48,26,28.41,28.23,6,3,9,0.00
2013-9-22,51.1,39.9,32.2,29.1,23.3,16.4,66,53,27,28.56,28.41,4,0,5,0.00
2013-9-23,65.5,44.6,29.8,36.1,22.0,16.4,76,45,18,28.58,28.53,10,2,14,0.00
2013-9-24,72.3,43.4,35.6,41.9,27.1,19.1,72,58,14,28.58,28.47,6,1,8,0.00
2013-9-25,76.5,55.6,41.9,51.6,32.4,16.4,79,50,13,28.50,28.47,8,1,12,0.00
2013-9-26,72.9,51.4,32.7,44.6,26.4,16.8,77,45,13,28.56,28.50,10,2,12,0.00
2013-9-27,76.1,56.0,37.2,49.2,27.7,17.6,80,41,13,28.61,28.50,11,4,17,0.00
2013-9-28,74.3,62.0,49.3,46.5,32.9,16.3,74,37,16,28.53,28.20,13,6,17,0.12
2013-9-29,72.5,54.9,41.2,41.6,30.3,13.5,75,47,14,28.44,28.29,9,1,13,0.00
2013-9-30,69.1,53.0,37.6,39.2,23.1,14.8,78,37,14,28.41,28.20,15,5,20,0.00
2013-10-1,79.3,59.7,44.2,34.8,25.2,8.8,55,30,12,28.32,28.14,10,3,16,0.00
2013-10-2,76.5,53.9,33.4,30.5,17.1,8.8,66,26,13,28.53,28.32,9,1,15,0.00
2013-10-3,62.4,53.3,49.3,41.2,28.7,23.7,68,40,24,28.53,28.41,7,1,10,0.20
2013-10-4,58.3,52.9,49.8,43.3,36.1,27.8,75,55,33,28.58,28.44,8,3,12,0.08
2013-10-5,50.7,48.7,47.1,43.3,41.7,37.6,85,77,61,28.58,28.29,8,3,11,0.91
2013-10-6,67.1,53.7,47.5,57.1,44.1,33.1,91,73,37,28.29,28.08,7,2,10,0.08
2013-10-7,58.5,45.4,32.2,38.0,23.6,12.7,69,45,19,28.47,28.11,8,2,12,0.00
2013-10-8,68.0,48.2,28.0,40.2,20.2,13.2,85,38,15,28.56,28.47,12,4,15,0.00
2013-10-9,76.5,59.3,46.4,37.6,27.4,17.6,68,34,13,28.58,28.50,10,4,13,0.00
2013-10-10,72.5,52.4,34.5,42.5,24.7,14.4,73,41,13,28.61,28.53,10,2,12,0.00
2013-10-11,69.1,52.1,37.9,46.6,29.4,23.3,78,47,19,28.56,28.44,10,2,13,0.00
2013-10-12,60.8,54.4,42.6,52.7,37.7,20.0,82,55,33,28.44,28.29,11,4,14,0.16
2013-10-13,59.7,46.0,28.0,26.5,17.9,6.6,47,34,17,28.85,28.44,7,3,12,0.00
2013-10-14,59.4,40.0,23.9,27.1,13.7,8.4,65,37,17,28.88,28.70,6,0,7,0.00
2013-10-15,49.6,46.0,40.1,44.2,34.7,20.4,82,66,43,28.70,28.17,7,2,11,0.16
2013-10-16,49.1,42.9,30.0,44.2,32.9,17.2,83,68,47,28.35,28.14,7,2,12,0.08
2013-10-17,55.9,37.8,22.1,30.1,15.8,8.8,73,45,17,28.32,28.20,8,1,8,0.00
2013-10-18,46.8,40.4,34.5,35.3,25.7,17.8,72,56,38,28.29,28.20,6,1,8,0.00
2013-10-19,50.9,36.5,25.2,28.1,17.1,5.9,75,50,18,28.29,28.08,8,1,12,0.04
2013-10-20,42.8,36.4,31.6,31.0,23.1,12.8,81,61,30,28.23,28.11,8,1,12,0.04
2013-10-21,40.8,33.1,26.8,28.8,16.2,2.4,80,53,26,28.17,28.08,11,4,17,0.20
2013-10-22,41.9,33.4,28.4,26.7,17.7,9.2,77,54,37,28.35,28.08,9,3,17,0.08
2013-10-23,37.0,30.1,21.9,22.6,11.5,5.5,74,47,30,28.35,28.29,9,3,15,0.00
2013-10-24,44.1,31.7,23.0,20.7,13.0,6.9,71,48,25,28.58,28.35,10,3,13,0.00
2013-10-25,43.0,33.8,22.8,26.9,12.1,0.9,76,46,21,28.64,28.05,12,4,20,0.00
2013-10-26,41.4,36.0,32.4,28.8,15.8,7.7,68,44,31,28.41,27.99,10,4,15,0.08
2013-10-27,48.4,35.4,29.1,23.0,13.1,4.9,67,41,19,28.56,28.23,8,2,10,0.00
2013-10-28,37.4,28.1,16.0,20.8,6.5,-1.9,62,40,22,28.88,28.56,5,1,8,0.00
2013-10-29,35.6,24.7,12.0,19.6,6.1,-3.2,63,47,22,28.88,28.61,7,1,9,0.00
2013-10-30,47.1,37.9,30.7,44.3,30.3,19.6,90,74,63,28.61,28.23,6,2,8,0.08
2013-10-31,51.6,47.9,44.6,48.5,44.7,40.4,91,89,85,28.23,27.64,6,1,8,0.35
2013-11-1,44.6,39.4,34.3,40.4,32.2,26.2,85,75,63,28.17,27.61,7,3,13,0.39
2013-11-2,37.9,33.6,28.4,30.2,19.7,9.0,80,59,31,28.58,28.17,6,1,11,0.04
2013-11-3,43.7,34.4,23.5,23.3,16.2,8.7,74,50,28,28.70,28.58,11,3,17,0.00
2013-11-4,45.5,42.7,38.8,34.0,22.4,18.3,69,45,36,28.64,28.41,17,9,26,0.00
2013-11-5,54.9,40.9,28.2,33.7,16.4,6.1,68,41,17,28.64,28.44,9,2,13,0.16
2013-11-6,34.9,32.5,29.7,27.8,19.2,7.4,79,60,37,28.44,28.26,12,3,21,0.31
2013-11-7,35.4,30.2,28.4,15.8,12.0,6.9,57,47,33,28.53,28.44,9,4,15,0.00
2013-11-8,41.4,32.3,27.0,21.2,8.7,-2.1,64,40,18,28.58,28.29,10,3,12,0.16
2013-11-9,35.8,34.4,32.7,30.5,25.9,19.6,84,72,56,28.29,28.02,11,5,16,0.35
2013-11-10,34.7,32.1,26.8,26.2,16.9,9.6,76,54,37,28.58,28.26,8,2,13,0.04
2013-11-11,32.7,23.0,18.1,22.8,2.3,-7.7,68,41,24,28.88,28.38,0,0,0,0.00
2013-11-12,29.3,19.1,11.1,-1.8,-6.8,-16.4,43,31,23,28.97,28.76,0,0,0,0.00
2013-11-13,45.0,27.8,10.9,10.3,-1.4,-10.4,41,29,20,28.76,28.20,11,3,17,0.00
2013-11-14,41.4,33.6,24.6,15.3,11.3,5.9,53,40,29,28.23,28.17,8,2,13,0.00
2013-11-15,54.9,33.6,21.2,22.7,11.4,6.7,64,42,18,28.29,28.20,10,1,16,0.00
2013-11-16,47.8,37.9,24.1,42.0,27.6,7.4,84,67,46,28.29,27.82,14,6,18,0.59
2013-11-17,50.9,46.1,34.2,45.1,34.1,13.4,82,64,38,27.85,27.61,16,6,25,0.04
2013-11-18,34.0,26.1,23.9,13.8,0.9,-1.7,43,33,32,28.56,27.76,11,7,18,0.04
2013-11-19,34.2,24.8,10.0,7.8,-1.5,-9.0,55,32,20,28.73,28.56,14,4,20,0.00
2013-11-20,37.0,33.9,29.5,24.0,11.8,4.2,69,41,29,28.58,28.53,15,8,20,0.00
2013-11-21,35.2,32.4,25.0,29.1,24.2,9.3,79,72,50,28.70,28.53,7,1,9,0.04
2013-11-22,31.5,23.4,16.0,9.8,2.7,-6.5,57,41,23,28.82,28.67,0,0,0,0.00
2013-11-23,15.8,9.7,5.5,-1.7,-14.1,-22.0,46,33,24,28.94,28.70,0,0,0,0.00
2013-11-24,21.4,12.1,1.8,-9.5,-17.1,-25.5,35,25,22,28.94,28.35,0,0,0,0.00
2013-11-25,32.7,27.0,18.1,10.5,1.6,-14.0,44,33,22,28.35,28.17,12,5,17,0.00
2013-11-26,29.8,17.7,7.0,12.3,-6.4,-18.7,49,34,22,28.53,28.26,10,4,17,0.00
2013-11-27,29.3,16.1,7.9,2.0,-3.5,-15.0,53,42,23,28.58,28.50,7,2,13,0.00
2013-11-28,31.3,13.0,0.0,2.0,-8.2,-20.9,46,38,23,28.79,28.56,3,0,4,0.00
2013-11-29,24.6,13.9,-4.7,3.1,-7.2,-24.9,46,38,32,28.94,28.70,7,2,11,0.00
2013-11-30,32.5,26.1,21.0,12.3,5.1,-0.4,52,40,31,28.70,28.41,8,2,9,0.00
2013-12-1,32.2,28.4,25.2,17.5,14.1,9.7,62,55,42,28.56,28.41,4,0,5,0.00
2013-12-2,31.6,23.2,10.8,13.2,5.7,-1.9,59,47,32,28.41,28.29,4,0,6,0.00
2013-12-3,28.4,23.8,21.7,9.1,5.4,3.1,54,45,36,28.38,28.29,7,3,9,0.00
2013-12-4,33.4,26.7,23.4,29.1,15.3,9.0,84,62,51,28.35,27.76,8,2,10,0.00
2013-12-5,34.7,22.8,4.6,30.5,5.8,-22.1,85,51,25,28.44,27.76,14,7,24,0.04
2013-12-6,17.2,4.6,1.2,-14.3,-23.4,-27.3,27,25,23,28.67,28.44,9,5,13,0.00
2013-12-7,16.0,-0.2,-8.0,-15.4,-28.6,-35.2,24,24,23,28.85,28.73,10,3,15,0.00
2013-12-8,11.7,5.4,-12.6,-18.6,-23.6,-39.6,24,24,24,28.85,28.50,5,0,6,0.00
2013-12-9,11.1,-3.0,-9.4,-18.7,-30.9,-36.5,24,24,24,28.32,28.14,14,6,22,0.00
2013-12-10,18.1,-0.5,-12.1,-13.5,-28.8,-38.8,24,24,23,28.41,28.14,10,4,15,0.00
2013-12-11,9.5,-5.0,-17.0,-20.1,-32.7,-43.0,24,24,24,28.67,28.41,12,4,15,0.00
2013-12-12,14.9,0.9,-15.0,-15.5,-27.6,-41.3,24,24,24,28.64,28.41,10,4,18,0.00
2013-12-13,18.7,3.5,-5.4,-13.2,-25.4,-33.0,24,24,22,28.73,28.44,7,1,10,0.00
2013-12-14,15.8,6.0,-6.2,-10.2,-20.7,-33.7,32,28,24,28.73,28.26,5,0,6,0.00
2013-12-15,17.2,9.5,-4.7,-8.5,-15.8,-29.0,37,30,25,28.41,28.14,14,4,23,0.00
2013-12-16,16.0,0.6,-19.1,-8.4,-24.9,-41.7,34,28,26,28.47,28.23,11,3,15,0.00
2013-12-17,26.8,13.3,1.9,5.5,-10.2,-24.4,47,34,27,28.32,28.14,10,2,12,0.00
2013-12-18,16.7,11.5,4.5,-8.5,-12.0,-20.9,37,33,28,28.38,28.08,9,3,13,0.00
2013-12-19,22.1,14.5,1.6,9.4,-6.0,-23.4,62,40,27,28.50,28.11,9,2,13,0.00
2013-12-20,22.5,17.6,13.1,4.6,0.5,-2.3,54,47,37,28.47,28.26,4,0,7,0.00
2013-12-21,30.4,17.9,5.7,8.6,-0.1,-8.5,53,45,28,28.41,28.26,4,0,6,0.00
2013-12-22,23.4,19.2,14.4,3.8,1.4,-1.3,54,45,36,28.47,28.32,7,2,13,0.00
2013-12-23,17.4,12.6,6.6,-0.9,-6.2,-13.7,50,42,35,28.73,28.47,6,1,9,0.00
2013-12-24,24.3,7.8,-9.2,-7.3,-17.7,-28.0,38,30,21,28.79,28.61,9,2,13,0.00
2013-12-25,19.9,8.4,-2.6,-8.1,-18.3,-24.1,35,28,24,28.61,28.35,10,4,12,0.00
2013-12-26,14.9,5.1,-8.1,-8.8,-17.9,-30.2,34,33,29,28.56,28.35,8,1,10,0.00
2013-12-27,30.2,12.2,-10.5,15.3,-6.7,-32.3,57,42,32,28.56,28.20,12,2,15,0.00
2013-12-28,34.3,30.4,22.1,19.2,14.8,6.7,62,52,41,28.35,28.20,7,1,12,0.00
2013-12-29,21.9,6.0,-15.3,6.4,-10.4,-30.5,53,46,45,28.47,28.23,9,4,14,0.00
2013-12-30,7.9,-7.7,-21.5,-9.1,-23.5,-36.2,45,45,45,28.56,28.44,5,1,8,0.00
2013-12-31,7.5,-10.0,-22.4,-9.8,-25.6,-37.2,45,45,45,28.67,28.38,12,2,17,0.00
2014-1-1,13.6,-12.1,-24.0,-4.5,-32.0,-47.3,45,37,24,28.79,28.67,6,1,9,0.00
2014-1-2,10.9,-11.5,-24.7,-18.9,-38.3,-49.8,24,24,24,30.26,28.70,8,1,10,0.00